[[{"header":{"parameterUnit":"m.s-1","parameterCategory":2,"la1":30.2991,"la2":30.254,"lo1":-89.0895,"lo2":-89.0444,"dy":0.0017,"dx":0.0017,"nx":28,"ny":28,"refTime":"2025-09-11T21:00:00:Z","depth":"0","parameterNumber":2,"parameterNumberName":"U-component_of_CURRENTS"},"data":[0,0,0,0,0,0,0,0,0,0,0,0,0,0,0,0,0,0,0,0,0,0,0,0,0,0,0,0,0,0,0,0,0,0,0,0,0,0,0,0,0,0,0,0,0,0,0,0,0,0,0,0,0,0,0,0,0,0,0.2717,0.2717,0,0.2774,0.2774,0.2775,0.2787,0.2787,0.2787,0.2787,0.2801,0.2801,0.2802,0,0,0,0,0,0,0,0,0,0,0,0,0,0.265,0.265,0.2716,0.2717,0.2718,0.2774,0.2774,0.2775,0.2787,0.2787,0.2787,0.2786,0.2801,0.2801,0.2802,0,0,0,0,0,0,0,0,0,0,0,0,0,0.2687,0.2651,0.2716,0.2733,0.2736,0.2774,0.2774,0.2775,0.2787,0.2787,0.2787,0.2786,0.2801,0.2801,0.2802,0.2812,0,0,0.2805,0.2805,0,0,0,0,0,0,0,0,0.2685,0.2689,0.273,0.2732,0.2735,0.2775,0.2756,0.2786,0.2787,0.2765,0.2787,0.2786,0.279,0.2792,0.28,0.2813,0.2813,0.2805,0.2805,0.2805,0.2806,0,0,0,0,0,0,0,0.2682,0.2687,0.2736,0.2731,0.2734,0.2749,0.2754,0.2762,0.2775,0.2767,0.2768,0.2779,0.2791,0.2799,0.28,0.2813,0.2805,0.2805,0.2806,0.2806,0.2866,0.2867,0,0,0,0,0,0,0.268,0.2685,0.2735,0.2738,0.2712,0.2751,0.2756,0.276,0.2776,0.2779,0.2779,0.278,0.2798,0.2799,0.2801,0.2847,0.2805,0.2806,0.2807,0.2864,0.2866,0.2867,0,0,0,0,0,0,0.2678,0.2683,0.2732,0.2715,0.2723,0.2752,0.2758,0.2762,0.2772,0.2787,0.2789,0.2786,0.2798,0.28,0.282,0.2846,0.2807,0.2807,0.2863,0.2865,0.2866,0.2917,0,0,0,0,0,0,0.2676,0.2682,0.2685,0.2715,0.2724,0.2758,0.2758,0.2763,0.278,0.2781,0.2793,0.2794,0.2798,0.2819,0.2821,0.2847,0.2808,0.2862,0.2864,0.2866,0.2914,0.2921,0.2926,0,0,0,0,0,0.2673,0.2681,0.2684,0.2691,0.2726,0.2758,0.2764,0.2782,0.2781,0.2789,0.2802,0.2794,0.2833,0.2821,0.2823,0.2849,0.2861,0.2863,0.2866,0.2912,0.2919,0.2926,0,0,0,0,0,0,0.2656,0.2684,0.2689,0.2705,0.273,0.2762,0.2775,0.2784,0.2801,0.28,0.2807,0.281,0.2836,0.2835,0.282,0.2872,0.2846,0.2849,0.288,0.2888,0.2893,0.292,0.2809,0,0,0,0,0,0.2653,0.2664,0.2695,0.2708,0.272,0.2746,0.276,0.2773,0.2794,0.2801,0.281,0.2825,0.2849,0.286,0.2872,0.29,0.2945,0.2918,0.2924,0.2929,0.2952,0.3027,0.3042,0.2875,0.2875,0.2875,0,0,0.2649,0.2668,0.2673,0.2705,0.2724,0.2757,0.2753,0.2778,0.2809,0.2799,0.2835,0.284,0.2859,0.2894,0.2906,0.2896,0.3007,0.2932,0.2936,0.2957,0.3031,0.3048,0.3063,0.2877,0.2876,0.2876,0,0,0.2657,0.2665,0.2681,0.2705,0.2739,0.2761,0.2769,0.2799,0.2816,0.2849,0.2856,0.2883,0.2904,0.2936,0.2953,0.2998,0.303,0.2993,0.3051,0.3123,0.3139,0.3152,0.3264,0.3287,0.3001,0.3002,0.3002,0,0.2654,0.268,0.2691,0.272,0.2749,0.2765,0.2799,0.2824,0.2858,0.2883,0.2865,0.2933,0.2934,0.3009,0.3025,0.3014,0.3073,0.3023,0.3134,0.3148,0.3161,0.3272,0.3297,0.3004,0.3004,0.3004,0.3003,0,0.268,0.2704,0.2719,0.2762,0.2791,0.2822,0.2862,0.2888,0.2904,0.2933,0.2993,0.3008,0.3055,0.3056,0.3056,0.3151,0.3172,0.3128,0.3119,0.3181,0.3294,0.3319,0.3008,0.3007,0.3006,0.3006,0,0,0.268,0.2726,0.2734,0.277,0.2817,0.2853,0.2901,0.2963,0.302,0.3037,0.3118,0.3147,0.3156,0.3178,0.3183,0.3244,0.3386,0.3232,0.3235,0.3352,0.3593,0.3603,0.3631,0.3362,0.3366,0.3369,0.3648,0,0.2705,0.2764,0.2778,0.285,0.2895,0.2923,0.298,0.3035,0.3079,0.3157,0.3185,0.3258,0.3205,0.3247,0.3294,0.3361,0.345,0.3318,0.3509,0.3516,0.3523,0.3659,0.3483,0.3715,0.3672,0.3676,0.3679,0,0.2747,0.2781,0.2842,0.2922,0.2944,0.2985,0.3089,0.314,0.3237,0.3272,0.3333,0.3368,0.347,0.3408,0.3572,0.3493,0.3559,0.3605,0.3616,0.3625,0.3572,0.3639,0.3763,0.3616,0.3718,0.3715,0.3712,0,0.2784,0.2843,0.2894,0.2919,0.2998,0.3035,0.3083,0.3175,0.3247,0.3361,0.344,0.3526,0.3607,0.3681,0.3767,0.3689,0.3966,0.3861,0.3947,0.395,0.3841,0.3827,0.3848,0.4007,0.4006,0.4005,0.4004,0,0.2836,0.2891,0.2913,0.2951,0.3033,0.3072,0.3174,0.3235,0.3345,0.3439,0.3507,0.3617,0.3679,0.3826,0.3864,0.4017,0.4051,0.4016,0.4034,0.3856,0.3841,0.3737,0.3668,0.4016,0.4013,0.4011,0.4009,0,0.2909,0.2913,0.2985,0.3039,0.3058,0.3125,0.3224,0.3294,0.3403,0.3535,0.3587,0.3742,0.3923,0.4028,0.419,0.4168,0.418,0.434,0.4154,0.4144,0.4018,0.3959,0.3947,0.3826,0.447,0.4472,0.4473,0,0.2962,0.2995,0.3044,0.3063,0.3088,0.3168,0.3214,0.3314,0.3382,0.36,0.3665,0.3904,0.4018,0.4306,0.436,0.4505,0.4311,0.4406,0.4199,0.4048,0.3996,0.3815,0.3697,0.4096,0.4095,0.4093,0.4092,0,0.3041,0.3042,0.3068,0.3105,0.3138,0.3198,0.3265,0.333,0.344,0.3562,0.3718,0.3842,0.4132,0.4198,0.4417,0.4449,0.4158,0.4385,0.4257,0.3759,0.3535,0.3412,0.391,0.4082,0.4083,0.4083,0.4084,0.4084,0.3066,0.3083,0.3067,0.3109,0.3144,0.3166,0.3174,0.3255,0.3346,0.3471,0.3663,0.3803,0.3978,0.4251,0.4286,0.4194,0.4153,0.4005,0.3976,0.3829,0.3603,0.4117,0.4273,0.4275,0.4277,0.4278,0.428,0,0.303,0.3022,0.3062,0.3051,0.3053,0.3098,0.3143,0.3116,0.3148,0.336,0.3486,0.3661,0.3766,0.3885,0.3904,0.3768,0.3562,0.3643,0.3296,0.322,0.3713,0.3579,0.3554,0.3554,0.3554,0.3555,0.3555,0.3555,0.2983,0.2956,0.2964,0.292,0.2924,0.2855,0.2844,0.2849,0.2947,0.3043,0.3149,0.331,0.3491,0.3595,0.3469,0.3385,0.3077,0.2977,0.2966,0.325,0.3277,0.3302,0.3158,0.3045,0.3044,0.2286,0.2281,0.2276]},{"header":{"parameterUnit":"m.s-1","parameterCategory":2,"la1":30.2991,"la2":30.254,"lo1":-89.0895,"lo2":-89.0444,"dy":0.0017,"dx":0.0017,"nx":28,"ny":28,"refTime":"2025-09-11T21:00:00:Z","depth":"0","parameterNumber":3,"parameterNumberName":"V-component_of_CURRENTS"},"data":[0,0,0,0,0,0,0,0,0,0,0,0,0,0,0,0,0,0,0,0,0,0,0,0,0,0,0,0,0,0,0,0,0,0,0,0,0,0,0,0,0,0,0,0,0,0,0,0,0,0,0,0,0,0,0,0,0,0,-0.0185,-0.0186,0,-0.0237,-0.0238,-0.0238,-0.0284,-0.0285,-0.0285,-0.0286,-0.0419,-0.0422,-0.0425,0,0,0,0,0,0,0,0,0,0,0,0,0,-0.0151,-0.0151,-0.0185,-0.0186,-0.0187,-0.0237,-0.0238,-0.0238,-0.0284,-0.0285,-0.0285,-0.0286,-0.0418,-0.0421,-0.0425,0,0,0,0,0,0,0,0,0,0,0,0,0,-0.018,-0.0151,-0.0185,-0.0216,-0.0219,-0.0237,-0.0238,-0.0238,-0.0284,-0.0285,-0.0285,-0.0286,-0.0417,-0.0421,-0.0425,-0.0436,0,0,-0.0439,-0.0441,0,0,0,0,0,0,0,0,-0.0178,-0.0181,-0.0211,-0.0214,-0.0218,-0.0255,-0.0274,-0.0309,-0.0284,-0.0259,-0.0286,-0.0287,-0.0371,-0.0379,-0.0386,-0.0442,-0.0448,-0.044,-0.0442,-0.0444,-0.0445,0,0,0,0,0,0,0,-0.0176,-0.018,-0.0205,-0.0211,-0.0216,-0.0235,-0.024,-0.0281,-0.0311,-0.0261,-0.0265,-0.0271,-0.0374,-0.0381,-0.0389,-0.045,-0.0439,-0.0443,-0.0446,-0.0448,-0.0528,-0.0527,0,0,0,0,0,0,-0.0168,-0.0177,-0.0204,-0.0207,-0.02,-0.0235,-0.0241,-0.0242,-0.0309,-0.0319,-0.027,-0.0273,-0.0373,-0.0384,-0.0394,-0.0423,-0.0444,-0.0448,-0.0451,-0.0528,-0.0528,-0.0527,0,0,0,0,0,0,-0.0167,-0.017,-0.0202,-0.0194,-0.02,-0.0235,-0.0236,-0.0243,-0.0251,-0.0315,-0.0327,-0.0272,-0.0374,-0.0388,-0.0421,-0.0428,-0.045,-0.0455,-0.0529,-0.0528,-0.0527,-0.0474,0,0,0,0,0,0,-0.0166,-0.0169,-0.0165,-0.0193,-0.02,-0.0202,-0.0235,-0.0243,-0.0253,-0.0257,-0.032,-0.0333,-0.0376,-0.0414,-0.0426,-0.0435,-0.0458,-0.053,-0.0529,-0.0528,-0.0476,-0.0471,-0.0467,0,0,0,0,0,-0.0165,-0.0151,-0.0165,-0.0168,-0.0194,-0.0202,-0.0206,-0.0235,-0.0252,-0.0247,-0.0289,-0.0331,-0.0416,-0.0417,-0.0431,-0.0442,-0.053,-0.0529,-0.0528,-0.0478,-0.0472,-0.0467,0,0,0,0,0,0,-0.0129,-0.0155,-0.0171,-0.0165,-0.0179,-0.0209,-0.0207,-0.0228,-0.0255,-0.0262,-0.0324,-0.0339,-0.037,-0.0406,-0.0406,-0.0459,-0.048,-0.0482,-0.0438,-0.0433,-0.0428,-0.0409,-0.0462,0,0,0,0,0,-0.012,-0.012,-0.0145,-0.014,-0.0145,-0.0175,-0.0183,-0.02,-0.0228,-0.0241,-0.0284,-0.0332,-0.0374,-0.0402,-0.0438,-0.0469,-0.0471,-0.0484,-0.0479,-0.0475,-0.0466,-0.0474,-0.0469,-0.0523,-0.0523,-0.0523,0,0,-0.0106,-0.0119,-0.012,-0.0133,-0.0148,-0.0148,-0.0181,-0.0184,-0.0189,-0.0253,-0.0271,-0.0313,-0.0374,-0.0405,-0.0424,-0.0441,-0.0453,-0.0473,-0.0469,-0.0463,-0.0472,-0.0467,-0.0462,-0.0522,-0.0522,-0.0522,0,0,-0.0072,-0.0087,-0.0076,-0.0084,-0.01,-0.012,-0.0118,-0.0143,-0.016,-0.018,-0.0228,-0.0266,-0.0328,-0.0372,-0.0405,-0.0394,-0.0421,-0.0412,-0.0386,-0.0393,-0.0388,-0.0384,-0.0348,-0.0341,-0.0418,-0.0418,-0.0418,0,-0.0054,-0.0044,-0.0071,-0.0062,-0.0064,-0.0105,-0.0089,-0.0112,-0.0145,-0.0152,-0.0177,-0.0253,-0.0312,-0.0354,-0.036,-0.0385,-0.0377,-0.0405,-0.0386,-0.0382,-0.0379,-0.0343,-0.0337,-0.0416,-0.0416,-0.0416,-0.0416,0,-0.0014,-0.0007,0.0002,-0.0005,-0.001,-0.0001,-0.0035,-0.0042,-0.0071,-0.0094,-0.0126,-0.0196,-0.0239,-0.0274,-0.0325,-0.034,-0.0334,-0.0371,-0.0398,-0.037,-0.0334,-0.0328,-0.0412,-0.0413,-0.0413,-0.0414,0,0,0.0031,0.003,0.0034,0.0046,0.0023,0.003,0.0018,0.0006,0.002,-0.0037,-0.0016,-0.0126,-0.0156,-0.0194,-0.0259,-0.0287,-0.0266,-0.0324,-0.0326,-0.0283,-0.0244,-0.0196,-0.0185,-0.0303,-0.0303,-0.0302,-0.0215,0,0.0072,0.0111,0.0092,0.0124,0.0141,0.0104,0.0107,0.0088,0.0067,0.008,-0.0003,-0.0009,-0.013,-0.0133,-0.0191,-0.0236,-0.0254,-0.0284,-0.0282,-0.028,-0.0239,-0.0178,-0.0198,-0.0119,-0.0209,-0.0208,-0.0207,0,0.0119,0.0139,0.0186,0.0202,0.0208,0.0221,0.0235,0.0234,0.022,0.0209,0.0167,0.0126,0.0069,-0.0018,-0.0108,-0.012,-0.0179,-0.0223,-0.0221,-0.0193,-0.0222,-0.0169,-0.0105,-0.0322,-0.0199,-0.02,-0.02,0,0.0179,0.0204,0.0249,0.0254,0.0265,0.0284,0.0289,0.0282,0.0322,0.0314,0.0369,0.0261,0.0269,0.0149,0.0038,-0.0029,-0.0014,-0.0114,-0.0122,-0.0118,-0.0142,-0.014,-0.0286,-0.0159,-0.016,-0.016,-0.016,0,0.0231,0.0263,0.0288,0.0316,0.0387,0.0361,0.044,0.0428,0.0472,0.0561,0.0453,0.0528,0.0311,0.0288,0.0133,0.0059,0.006,-0.0087,-0.0091,-0.0119,-0.0116,-0.0313,-0.043,-0.0157,-0.0157,-0.0158,-0.0158,0,0.0282,0.0295,0.0359,0.0399,0.0422,0.0477,0.0563,0.0625,0.0645,0.0773,0.0794,0.076,0.0728,0.0553,0.0411,0.0231,0.0033,0.0103,0.0113,0.0107,-0.0151,-0.0262,-0.0345,-0.0419,0.0087,0.0089,0.009,0,0.0305,0.0347,0.044,0.0502,0.0527,0.0609,0.068,0.0713,0.0803,0.0935,0.1026,0.1046,0.1088,0.0918,0.0623,0.0413,0.0172,0.0222,0.0059,-0.0137,-0.0266,-0.035,-0.0415,0.0061,0.0062,0.0063,0.0064,0,0.0356,0.0402,0.0466,0.0596,0.069,0.0796,0.0903,0.101,0.1085,0.1215,0.1386,0.1448,0.1311,0.1101,0.0805,0.06,0.0069,0.0235,0.0004,-0.0304,-0.038,-0.0461,0.0002,0.0072,0.0071,0.0071,0.007,0.007,0.0405,0.047,0.057,0.0688,0.0807,0.0953,0.1057,0.1203,0.1383,0.1592,0.1649,0.1792,0.1456,0.1059,0.077,0.0175,0.0177,-0.007,-0.0181,-0.0242,-0.0348,0.0171,0.0245,0.0245,0.0245,0.0245,0.0245,0,0.045,0.0526,0.0646,0.0802,0.0936,0.0982,0.1183,0.1304,0.1529,0.1772,0.1937,0.1888,0.1456,0.0964,0.0208,-0.0199,-0.0394,-0.044,-0.0633,-0.0677,-0.0243,-0.0285,-0.0291,-0.0291,-0.0291,-0.0291,-0.0291,-0.029,0.0482,0.0591,0.0649,0.0863,0.0979,0.1158,0.127,0.1472,0.1667,0.1953,0.2089,0.2175,0.1778,0.0452,-0.0474,-0.0686,-0.1008,-0.1028,-0.1154,-0.096,-0.0937,-0.0916,-0.0987,-0.114,-0.1141,-0.1573,-0.1578,-0.1581]}],[{"header":{"parameterUnit":"m.s-1","parameterCategory":2,"la1":30.2991,"la2":30.254,"lo1":-89.0895,"lo2":-89.0444,"dy":0.0017,"dx":0.0017,"nx":28,"ny":28,"refTime":"2025-09-11T21:00:00:Z","depth":"2","parameterNumber":2,"parameterNumberName":"U-component_of_CURRENTS"},"data":[0,0,0,0,0,0,0,0,0,0,0,0,0,0,0,0,0,0,0,0,0,0,0,0,0,0,0,0,0,0,0,0,0,0,0,0,0,0,0,0,0,0,0,0,0,0,0,0,0,0,0,0,0,0,0,0,0,0,0.2273,0.2275,0,0.2315,0.2315,0.2314,0.2319,0.2319,0.232,0.232,0.2381,0.2382,0.2383,0,0,0,0,0,0,0,0,0,0,0,0,0,0.2211,0.2212,0.2273,0.2275,0.2276,0.2315,0.2315,0.2314,0.2319,0.2319,0.232,0.232,0.238,0.2382,0.2383,0,0,0,0,0,0,0,0,0,0,0,0,0,0.2237,0.2212,0.2273,0.2288,0.2291,0.2315,0.2315,0.2314,0.2319,0.2319,0.232,0.232,0.238,0.2382,0.2384,0.2387,0,0,0.239,0.2391,0,0,0,0,0,0,0,0,0.2235,0.2238,0.2285,0.2288,0.229,0.2319,0.2316,0.2342,0.2319,0.23,0.232,0.232,0.2367,0.237,0.2365,0.239,0.2393,0.239,0.2391,0.2392,0.2393,0,0,0,0,0,0,0,0.2233,0.2236,0.2282,0.2286,0.229,0.2299,0.2301,0.232,0.2325,0.2302,0.2304,0.2321,0.2367,0.2363,0.2367,0.2394,0.239,0.2392,0.2393,0.2394,0.2459,0.2459,0,0,0,0,0,0,0.2243,0.2234,0.2281,0.2284,0.2272,0.23,0.2303,0.2303,0.2324,0.233,0.232,0.2321,0.2359,0.2364,0.2369,0.2434,0.2392,0.2394,0.2395,0.2458,0.2459,0.2459,0,0,0,0,0,0,0.2241,0.2246,0.2279,0.2267,0.2273,0.2301,0.2301,0.2304,0.2316,0.234,0.2344,0.2333,0.236,0.2366,0.2397,0.2435,0.2395,0.2397,0.2458,0.2458,0.2459,0.2527,0,0,0,0,0,0,0.2238,0.2244,0.2248,0.2267,0.2275,0.2303,0.2301,0.2305,0.2329,0.233,0.2352,0.2357,0.2361,0.2394,0.2399,0.2437,0.2398,0.2457,0.2458,0.2459,0.2524,0.253,0.2535,0,0,0,0,0,0.2236,0.2241,0.2247,0.2253,0.2277,0.2305,0.2308,0.2324,0.233,0.2336,0.2351,0.2357,0.2403,0.2396,0.2402,0.2441,0.2457,0.2458,0.2459,0.2522,0.2529,0.2535,0,0,0,0,0,0,0.221,0.2244,0.225,0.2263,0.2288,0.2309,0.2322,0.2334,0.2348,0.2352,0.2366,0.2372,0.2415,0.2409,0.2401,0.2459,0.243,0.2433,0.2476,0.2483,0.2489,0.2517,0.24,0,0,0,0,0,0.2208,0.2225,0.2254,0.2267,0.2279,0.2301,0.2316,0.2329,0.2349,0.2356,0.2372,0.2389,0.242,0.2437,0.2452,0.2485,0.2512,0.251,0.2516,0.2521,0.2546,0.2609,0.2624,0.2463,0.2463,0.2463,0,0,0.2208,0.2226,0.2239,0.2265,0.2281,0.2312,0.2309,0.2337,0.2367,0.2362,0.2399,0.2413,0.2432,0.247,0.2489,0.2475,0.258,0.2522,0.2527,0.2549,0.2612,0.2628,0.2642,0.2464,0.2464,0.2464,0,0,0.2214,0.2225,0.2242,0.2269,0.2305,0.2323,0.2337,0.2363,0.2378,0.2418,0.2425,0.2464,0.2494,0.2522,0.2542,0.2586,0.2608,0.2581,0.2639,0.27,0.2715,0.2728,0.2787,0.2805,0.2584,0.2584,0.2584,0,0.2212,0.2236,0.2252,0.2279,0.231,0.2333,0.2365,0.2387,0.2421,0.2448,0.244,0.252,0.253,0.2605,0.2617,0.2605,0.2638,0.2617,0.2711,0.2725,0.2738,0.2795,0.2814,0.2588,0.2587,0.2587,0.2587,0,0.2235,0.2262,0.2277,0.2321,0.2349,0.2384,0.2423,0.245,0.2477,0.251,0.2583,0.2603,0.2659,0.2662,0.2659,0.275,0.2744,0.2714,0.2703,0.2759,0.2814,0.2833,0.2593,0.2591,0.259,0.2589,0,0,0.2224,0.228,0.2289,0.2325,0.2379,0.241,0.2459,0.252,0.2584,0.2615,0.2703,0.2746,0.2769,0.2791,0.2794,0.2842,0.2953,0.282,0.2821,0.2894,0.3097,0.3011,0.3023,0.2942,0.2945,0.2948,0.3103,0,0.2243,0.229,0.2318,0.2391,0.2427,0.2471,0.253,0.259,0.2643,0.273,0.2774,0.2856,0.2815,0.2861,0.2905,0.2944,0.3005,0.2914,0.302,0.3023,0.2953,0.3043,0.2786,0.2895,0.3121,0.3124,0.3126,0,0.2261,0.2299,0.235,0.2445,0.2467,0.2523,0.2629,0.2683,0.2796,0.2843,0.2924,0.2966,0.3059,0.3013,0.3128,0.3073,0.3102,0.3121,0.3127,0.3041,0.2972,0.2873,0.292,0.3158,0.3155,0.3153,0.3151,0,0.2257,0.2329,0.237,0.2403,0.2505,0.2556,0.2622,0.2726,0.2792,0.293,0.3007,0.3103,0.3185,0.3227,0.3261,0.3212,0.3387,0.3319,0.3276,0.327,0.307,0.304,0.3422,0.3422,0.3422,0.3421,0.3421,0,0.2278,0.2325,0.2381,0.2427,0.2515,0.2578,0.2703,0.2771,0.2897,0.3011,0.3075,0.3178,0.3246,0.3338,0.3335,0.3374,0.3451,0.3323,0.3316,0.3083,0.3054,0.3284,0.3266,0.3427,0.3426,0.3425,0.3424,0,0.2287,0.2308,0.238,0.2483,0.2521,0.2591,0.2745,0.2835,0.2945,0.3097,0.3149,0.3279,0.3393,0.3446,0.3546,0.3479,0.3513,0.3508,0.323,0.3187,0.3337,0.3321,0.3478,0.3477,0.3476,0.3474,0.3474,0,0.2305,0.2329,0.242,0.2472,0.2532,0.2646,0.2731,0.2846,0.2919,0.315,0.3202,0.3383,0.3446,0.3546,0.3504,0.3507,0.3558,0.3259,0.3106,0.3372,0.335,0.3335,0.332,0.2876,0.287,0.2865,0.2862,0,0.2358,0.2368,0.2427,0.251,0.2593,0.27,0.2814,0.2848,0.2999,0.3081,0.3202,0.3279,0.3414,0.3283,0.3305,0.326,0.3224,0.3163,0.3551,0.2886,0.2812,0.2787,0.2791,0.282,0.2824,0.2827,0.2829,0.2831,0.2401,0.2424,0.2473,0.2536,0.2643,0.2722,0.275,0.2816,0.2864,0.2903,0.3055,0.3042,0.3095,0.2958,0.2889,0.2846,0.3043,0.2877,0.2889,0.2906,0.2793,0.2719,0.269,0.2694,0.2696,0.2699,0.2701,0,0.2437,0.2452,0.2506,0.2558,0.2616,0.273,0.2777,0.2711,0.266,0.271,0.2715,0.2491,0.242,0.25,0.2368,0.2356,0.2301,0.2263,0.2167,0.2212,0.2251,0.21,0.1816,0.1813,0.181,0.1808,0,0,0.2449,0.2461,0.2427,0.2464,0.2565,0.2591,0.2591,0.2466,0.2401,0.2232,0.2167,0.2274,0.2406,0.2058,0.2032,0.1909,0.2035,0.1835,0.2552,0.2485,0.2519,0.2624,0.2447,0,0,0,0,0]},{"header":{"parameterUnit":"m.s-1","parameterCategory":2,"la1":30.2991,"la2":30.254,"lo1":-89.0895,"lo2":-89.0444,"dy":0.0017,"dx":0.0017,"nx":28,"ny":28,"refTime":"2025-09-11T21:00:00:Z","depth":"2","parameterNumber":3,"parameterNumberName":"V-component_of_CURRENTS"},"data":[0,0,0,0,0,0,0,0,0,0,0,0,0,0,0,0,0,0,0,0,0,0,0,0,0,0,0,0,0,0,0,0,0,0,0,0,0,0,0,0,0,0,0,0,0,0,0,0,0,0,0,0,0,0,0,0,0,0,0.0097,0.0097,0,0.0056,0.0055,0.0055,0.0019,0.0019,0.0019,0.0018,-0.0085,-0.0088,-0.009,0,0,0,0,0,0,0,0,0,0,0,0,0,0.0112,0.0113,0.0097,0.0097,0.0096,0.0056,0.0055,0.0055,0.0019,0.0019,0.0019,0.0018,-0.0085,-0.0087,-0.009,0,0,0,0,0,0,0,0,0,0,0,0,0,0.0092,0.0113,0.0097,0.0074,0.0071,0.0056,0.0055,0.0055,0.002,0.0019,0.0018,0.0018,-0.0084,-0.0087,-0.0091,-0.0101,0,0,-0.0102,-0.0103,0,0,0,0,0,0,0,0,0.0093,0.0092,0.0078,0.0075,0.0072,0.0042,0.0023,-0.0001,0.002,0.0039,0.0018,0.0018,-0.0048,-0.0055,-0.006,-0.0106,-0.011,-0.0102,-0.0104,-0.0106,-0.0107,0,0,0,0,0,0,0,0.0095,0.0093,0.0081,0.0077,0.0074,0.0054,0.0051,0.0018,-0.0002,0.0037,0.0035,0.003,-0.005,-0.0057,-0.0063,-0.0112,-0.0102,-0.0105,-0.0107,-0.0109,-0.0172,-0.0171,0,0,0,0,0,0,0.0102,0.0095,0.0082,0.0079,0.0082,0.0054,0.0051,0.0052,-0.0,-0.0008,0.0031,0.0029,-0.005,-0.0059,-0.0067,-0.0078,-0.0106,-0.0109,-0.0111,-0.0172,-0.0171,-0.0171,0,0,0,0,0,0,0.0103,0.0102,0.0084,0.0086,0.0082,0.0055,0.0057,0.0052,0.0043,-0.0004,-0.0014,0.0027,-0.0051,-0.0062,-0.0087,-0.0083,-0.0111,-0.0114,-0.0173,-0.0172,-0.0171,-0.0104,0,0,0,0,0,0,0.0104,0.0103,0.0106,0.0086,0.0082,0.0079,0.0057,0.0052,0.0042,0.0039,-0.0011,-0.0021,-0.0052,-0.0081,-0.009,-0.0088,-0.0117,-0.0173,-0.0172,-0.0171,-0.0107,-0.0101,-0.0096,0,0,0,0,0,0.0105,0.0116,0.0107,0.0105,0.0088,0.008,0.0076,0.0054,0.0042,0.0043,0.0015,-0.0019,-0.0082,-0.0083,-0.0094,-0.0093,-0.0174,-0.0173,-0.0171,-0.0109,-0.0102,-0.0096,0,0,0,0,0,0,0.0126,0.0113,0.0102,0.0109,0.0096,0.0074,0.0073,0.0058,0.0037,0.0033,-0.0013,-0.0024,-0.0046,-0.0076,-0.0076,-0.0108,-0.0134,-0.0135,-0.0083,-0.0077,-0.0071,-0.0052,-0.012,0,0,0,0,0,0.0132,0.0136,0.0119,0.0123,0.012,0.0097,0.009,0.0077,0.0056,0.0046,0.0013,-0.0022,-0.0049,-0.0067,-0.0097,-0.0114,-0.0141,-0.0121,-0.0116,-0.0111,-0.0102,-0.0136,-0.0133,-0.0167,-0.0167,-0.0167,0,0,0.014,0.0134,0.0135,0.0128,0.0116,0.012,0.0092,0.0087,0.0093,0.0037,0.0032,-0.0006,-0.0049,-0.0065,-0.0078,-0.0091,-0.0114,-0.0109,-0.0105,-0.0099,-0.0134,-0.0131,-0.0128,-0.0167,-0.0167,-0.0167,0,0,0.0164,0.0154,0.0167,0.0161,0.0149,0.0138,0.0139,0.0119,0.0113,0.01,0.0066,0.0035,-0.0011,-0.0034,-0.0054,-0.0038,-0.0085,-0.0052,-0.0011,-0.0044,-0.0041,-0.0039,-0.0063,-0.0064,-0.0049,-0.0049,-0.0049,0,0.0173,0.0191,0.0169,0.0181,0.0186,0.015,0.017,0.0158,0.0133,0.0135,0.0105,0.0049,0.0006,-0.0005,-0.0002,-0.0026,-0.0049,-0.0031,-0.0036,-0.0035,-0.0034,-0.006,-0.0061,-0.0046,-0.0046,-0.0046,-0.0047,0,0.0207,0.0221,0.0229,0.0235,0.0234,0.0245,0.023,0.0229,0.021,0.0192,0.0174,0.0116,0.0084,0.0062,0.0031,0.0021,0.0002,-0.0025,-0.005,-0.0026,-0.0055,-0.0058,-0.0041,-0.0042,-0.0043,-0.0044,0,0,0.0233,0.0252,0.0255,0.0278,0.0269,0.028,0.0291,0.0298,0.0318,0.0267,0.0285,0.0217,0.0179,0.0155,0.0109,0.0075,0.0054,0.0032,0.0029,0.0013,-0.0011,-0.0049,-0.0057,0.0025,0.0025,0.0025,-0.0031,0,0.0269,0.032,0.0313,0.0358,0.0386,0.0367,0.0384,0.0381,0.0369,0.0373,0.0308,0.0292,0.0218,0.0203,0.0158,0.0086,0.0048,0.0072,-0.0036,-0.0039,-0.0072,-0.0061,-0.0039,-0.009,-0.0035,-0.0035,-0.0036,0,0.0305,0.034,0.0397,0.0442,0.0452,0.0468,0.0506,0.0517,0.0505,0.0495,0.046,0.0404,0.035,0.028,0.0163,0.0182,0.0092,0.0026,0.0022,-0.0039,-0.0083,-0.0107,-0.0098,-0.0041,-0.0041,-0.004,-0.004,0,0.0347,0.04,0.0457,0.0469,0.0504,0.0532,0.055,0.0553,0.0589,0.0574,0.059,0.0502,0.0477,0.0348,0.0196,0.0181,0.0067,0.0027,-0.0092,-0.0095,-0.0111,-0.0115,-0.006,-0.006,-0.006,-0.0059,-0.0059,0,0.0391,0.0435,0.0485,0.0513,0.0589,0.0589,0.0658,0.0666,0.0691,0.075,0.0656,0.0678,0.0492,0.0399,0.024,0.0071,0.0095,-0.008,-0.0113,-0.0087,-0.0089,-0.0076,-0.0077,-0.0062,-0.0061,-0.0061,-0.006,0,0.0423,0.045,0.0524,0.0584,0.0608,0.0663,0.0739,0.0793,0.0802,0.0881,0.088,0.0816,0.0695,0.0499,0.0303,0.0145,-0.0026,-0.0096,-0.005,-0.0078,-0.0178,-0.0175,-0.0231,-0.0233,-0.0235,-0.0236,-0.0237,0,0.0448,0.0486,0.0579,0.0633,0.0665,0.0745,0.0804,0.0844,0.0918,0.0975,0.1027,0.0934,0.0881,0.0572,0.0279,-0.0004,-0.0032,-0.0169,-0.0209,-0.0169,-0.0196,-0.019,-0.0185,-0.0199,-0.0199,-0.02,-0.02,0,0.05,0.0527,0.0591,0.0704,0.0785,0.0874,0.0969,0.1054,0.1122,0.1185,0.1252,0.1207,0.0916,0.0628,0.0232,0.0039,-0.0129,-0.0191,-0.0154,-0.0163,-0.0145,-0.0169,-0.0163,-0.0205,-0.0205,-0.0205,-0.0204,-0.0204,0.054,0.06,0.0687,0.0798,0.0883,0.1001,0.1114,0.1213,0.134,0.144,0.1392,0.1319,0.1,0.0475,0.0163,-0.0166,-0.0166,-0.0287,-0.0283,-0.0278,-0.0268,-0.0254,-0.0333,-0.0334,-0.0334,-0.0334,-0.0334,0,0.0606,0.0672,0.0778,0.0918,0.1028,0.1052,0.1227,0.1338,0.1507,0.1516,0.1529,0.1204,0.0875,0.0526,0.003,-0.0273,-0.0285,-0.0356,-0.0299,-0.0293,-0.0288,-0.0276,-0.0345,-0.0345,-0.0346,-0.0346,0,0,0.0647,0.076,0.0825,0.1025,0.1118,0.1287,0.1402,0.153,0.1584,0.1583,0.1506,0.1361,0.0948,0.0593,0.0197,-0.0067,-0.011,-0.0123,-0.0088,0.0031,0.004,-0.0229,-0.0203,0,0,0,0,0]}],[{"header":{"parameterUnit":"m.s-1","parameterCategory":2,"la1":30.2991,"la2":30.254,"lo1":-89.0895,"lo2":-89.0444,"dy":0.0017,"dx":0.0017,"nx":28,"ny":28,"refTime":"2025-09-11T21:00:00:Z","depth":"4","parameterNumber":2,"parameterNumberName":"U-component_of_CURRENTS"},"data":[0,0,0,0,0,0,0,0,0,0,0,0,0,0,0,0,0,0,0,0,0,0,0,0,0,0,0,0,0,0,0,0,0,0,0,0,0,0,0,0,0,0,0,0,0,0,0,0,0,0,0,0,0,0,0,0,0,0,0.135,0.1351,0,0.1391,0.1391,0.1392,0.1423,0.1424,0.1424,0.1425,0.1483,0.1484,0.1486,0,0,0,0,0,0,0,0,0,0,0,0,0,0.1277,0.1278,0.135,0.1351,0.1352,0.1391,0.1391,0.1392,0.1423,0.1424,0.1425,0.1425,0.1483,0.1484,0.1486,0,0,0,0,0,0,0,0,0,0,0,0,0,0.1311,0.1279,0.135,0.1374,0.1376,0.1391,0.1391,0.1392,0.1423,0.1424,0.1425,0.1425,0.1483,0.1484,0.1486,0.1482,0,0,0.1491,0.1492,0,0,0,0,0,0,0,0,0.1309,0.1313,0.137,0.1372,0.1375,0.1405,0.1387,0.1423,0.1423,0.1403,0.1425,0.1426,0.1459,0.1463,0.1466,0.1484,0.1487,0.1491,0.1492,0.1493,0.1493,0,0,0,0,0,0,0,0.1306,0.1311,0.1365,0.137,0.1374,0.1374,0.138,0.1394,0.1426,0.1405,0.1408,0.1415,0.1461,0.1464,0.1468,0.1488,0.1491,0.1492,0.1493,0.1494,0.1589,0.159,0,0,0,0,0,0,0.1306,0.1309,0.1363,0.1366,0.1345,0.1375,0.1381,0.1393,0.1425,0.1431,0.1415,0.1417,0.1461,0.1466,0.147,0.154,0.1493,0.1494,0.1495,0.1587,0.1589,0.1591,0,0,0,0,0,0,0.1304,0.131,0.1362,0.134,0.1347,0.1376,0.1388,0.1393,0.1427,0.1433,0.1439,0.1447,0.1462,0.1468,0.1503,0.154,0.1495,0.1497,0.1585,0.1588,0.159,0.1634,0,0,0,0,0,0,0.1302,0.1309,0.1332,0.134,0.1348,0.139,0.1388,0.1394,0.143,0.1433,0.1462,0.1466,0.1463,0.15,0.1504,0.1542,0.1498,0.1583,0.1586,0.1589,0.1631,0.1637,0.1643,0,0,0,0,0,0.1299,0.1318,0.1332,0.134,0.1373,0.1391,0.1396,0.1417,0.1431,0.1449,0.1467,0.1467,0.1522,0.1502,0.1507,0.1546,0.1582,0.1586,0.1589,0.1628,0.1636,0.1643,0,0,0,0,0,0,0.1297,0.1324,0.1339,0.1367,0.1389,0.1398,0.1421,0.1435,0.1463,0.1477,0.1479,0.1485,0.1529,0.1532,0.1511,0.1582,0.1555,0.156,0.1583,0.1591,0.1598,0.1601,0.1499,0,0,0,0,0,0.1307,0.1333,0.1354,0.138,0.1395,0.1415,0.1432,0.1448,0.1466,0.1481,0.1499,0.1522,0.1541,0.1563,0.1576,0.1614,0.1629,0.1645,0.1652,0.1657,0.1664,0.1718,0.173,0.1602,0.1602,0.1602,0,0,0.1312,0.1333,0.1348,0.1383,0.1403,0.1423,0.1428,0.1463,0.1484,0.1483,0.1527,0.1544,0.1555,0.1594,0.1616,0.1606,0.1702,0.1661,0.1666,0.167,0.1723,0.1735,0.1746,0.1604,0.1604,0.1603,0,0,0.1321,0.1358,0.1377,0.1402,0.1442,0.1452,0.147,0.1499,0.1522,0.1561,0.1565,0.1605,0.1639,0.1652,0.1662,0.1715,0.1729,0.173,0.1773,0.1825,0.1836,0.1846,0.188,0.1893,0.174,0.174,0.174,0,0.1329,0.1354,0.1386,0.1412,0.1434,0.1468,0.1489,0.1515,0.1552,0.1577,0.1586,0.1656,0.1665,0.1711,0.1729,0.173,0.1759,0.174,0.1833,0.1843,0.1853,0.1886,0.1899,0.1742,0.1742,0.1742,0.1741,0,0.1345,0.1375,0.1392,0.1434,0.1463,0.1491,0.1526,0.1566,0.1603,0.1627,0.1696,0.1718,0.1764,0.1776,0.1768,0.1842,0.184,0.1829,0.1812,0.1868,0.1899,0.1912,0.1746,0.1745,0.1744,0.1744,0,0,0.1326,0.1388,0.1396,0.1419,0.1479,0.1499,0.155,0.1595,0.1646,0.1696,0.1758,0.1799,0.1834,0.1848,0.186,0.1905,0.1988,0.1903,0.1905,0.1934,0.2106,0.1964,0.1964,0.2003,0.2006,0.2008,0.2102,0,0.1326,0.1362,0.1403,0.1445,0.1461,0.1522,0.1564,0.162,0.1682,0.1753,0.18,0.187,0.1855,0.1905,0.1943,0.1977,0.2025,0.1963,0.2051,0.2053,0.1917,0.1975,0.2016,0.2111,0.2114,0.2116,0.2118,0,0.132,0.1343,0.1379,0.1445,0.1463,0.1509,0.1601,0.1646,0.1748,0.1803,0.1887,0.1939,0.2016,0.2003,0.2098,0.2065,0.2095,0.2115,0.212,0.1979,0.1934,0.2044,0.2141,0.2139,0.2138,0.2136,0.2135,0,0.1266,0.1328,0.1355,0.1379,0.1458,0.1509,0.1565,0.1668,0.1721,0.1859,0.1932,0.2021,0.2096,0.2145,0.2192,0.2166,0.2289,0.2255,0.2155,0.2146,0.2226,0.2214,0.2334,0.2334,0.2334,0.2333,0.2333,0,0.123,0.1251,0.1343,0.1358,0.1409,0.149,0.1577,0.1649,0.1772,0.1843,0.1965,0.2039,0.2144,0.2222,0.2235,0.2231,0.233,0.2172,0.2165,0.2241,0.2231,0.2235,0.2222,0.2337,0.2336,0.2335,0.2335,0,0.1146,0.1207,0.1244,0.1345,0.1383,0.1425,0.1564,0.1625,0.1765,0.1871,0.1926,0.2082,0.2178,0.2259,0.2351,0.2281,0.2297,0.2276,0.2365,0.2359,0.2106,0.2095,0.2161,0.2157,0.2154,0.2151,0.2148,0,0.1091,0.1102,0.1218,0.1251,0.1305,0.139,0.1447,0.1593,0.1665,0.1871,0.1906,0.2073,0.2158,0.2176,0.2255,0.2285,0.2259,0.2254,0.2159,0.2105,0.2092,0.2086,0.208,0.2143,0.2142,0.2141,0.214,0,0.0974,0.1042,0.1092,0.1165,0.1238,0.1291,0.1398,0.144,0.1613,0.1761,0.1859,0.193,0.2034,0.2088,0.2145,0.2151,0.2241,0.2217,0.2223,0.2133,0.2083,0.2072,0.207,0.2128,0.2129,0.213,0.2131,0,0.0905,0.0921,0.1012,0.1074,0.1144,0.1172,0.1246,0.1345,0.143,0.1671,0.1693,0.1865,0.201,0.2021,0.2059,0.2068,0.2024,0.1948,0.1967,0.1981,0.1876,0.1783,0.1739,0,0,0,0,0,0.0823,0.0848,0.0901,0.0968,0.1031,0.1072,0.1198,0.1284,0.1466,0.1492,0.1593,0.1684,0.1764,0.1843,0.1815,0.1958,0.2018,0.1915,0.1936,0.206,0.2074,0.1965,0,0,0,0,0,0,0.0786,0.0821,0.0869,0.086,0.0883,0.0934,0.1011,0.1136,0.1169,0.1364,0.1419,0.1566,0.1666,0.1757,0.1775,0.1799,0.1774,0.202,0.2016,0.2052,0.2065,0.2076,0.1968,0,0,0,0,0]},{"header":{"parameterUnit":"m.s-1","parameterCategory":2,"la1":30.2991,"la2":30.254,"lo1":-89.0895,"lo2":-89.0444,"dy":0.0017,"dx":0.0017,"nx":28,"ny":28,"refTime":"2025-09-11T21:00:00:Z","depth":"4","parameterNumber":3,"parameterNumberName":"V-component_of_CURRENTS"},"data":[0,0,0,0,0,0,0,0,0,0,0,0,0,0,0,0,0,0,0,0,0,0,0,0,0,0,0,0,0,0,0,0,0,0,0,0,0,0,0,0,0,0,0,0,0,0,0,0,0,0,0,0,0,0,0,0,0,0,0.0153,0.0152,0,0.0131,0.0131,0.0131,0.0114,0.0114,0.0113,0.0113,0.0062,0.006,0.0059,0,0,0,0,0,0,0,0,0,0,0,0,0,0.0155,0.0155,0.0153,0.0152,0.0152,0.0131,0.0131,0.013,0.0114,0.0114,0.0113,0.0113,0.0062,0.0061,0.0059,0,0,0,0,0,0,0,0,0,0,0,0,0,0.0144,0.0155,0.0153,0.0142,0.0141,0.0131,0.0131,0.013,0.0114,0.0114,0.0113,0.0113,0.0063,0.0061,0.0059,0.0048,0,0,0.0053,0.0052,0,0,0,0,0,0,0,0,0.0145,0.0144,0.0144,0.0143,0.0142,0.0126,0.0113,0.0102,0.0114,0.0123,0.0113,0.0113,0.0081,0.0078,0.0072,0.0045,0.0043,0.0052,0.0051,0.005,0.005,0,0,0,0,0,0,0,0.0146,0.0145,0.0143,0.0144,0.0143,0.0131,0.0129,0.0111,0.0101,0.0122,0.0121,0.0121,0.008,0.0075,0.0071,0.0042,0.0053,0.0051,0.005,0.0049,0.001,0.0011,0,0,0,0,0,0,0.0153,0.0146,0.0143,0.0142,0.0145,0.0131,0.0129,0.013,0.0102,0.0098,0.0121,0.012,0.0078,0.0073,0.0069,0.0076,0.005,0.0049,0.0047,0.001,0.001,0.0011,0,0,0,0,0,0,0.0153,0.0153,0.0144,0.0144,0.0143,0.0131,0.0132,0.013,0.0127,0.0102,0.0097,0.0121,0.0078,0.0072,0.0061,0.0073,0.0048,0.0046,0.001,0.001,0.0011,0.0076,0,0,0,0,0,0,0.0153,0.0153,0.0156,0.0145,0.0143,0.0142,0.0132,0.013,0.0127,0.0126,0.01,0.0095,0.0077,0.0064,0.0059,0.007,0.0044,0.001,0.001,0.001,0.0073,0.0078,0.0082,0,0,0,0,0,0.0153,0.016,0.0156,0.0156,0.0147,0.0143,0.0141,0.0131,0.0127,0.0127,0.0114,0.0096,0.0063,0.0063,0.0057,0.0067,0.001,0.001,0.001,0.0071,0.0077,0.0082,0,0,0,0,0,0,0.0162,0.0159,0.0154,0.0159,0.0153,0.014,0.0142,0.0134,0.0124,0.0124,0.01,0.0094,0.0088,0.0066,0.0067,0.0055,0.0032,0.0031,0.008,0.0086,0.009,0.0105,0.0043,0,0,0,0,0,0.0166,0.0171,0.0163,0.0167,0.0165,0.0154,0.0151,0.0145,0.0135,0.0131,0.0113,0.0095,0.0083,0.0077,0.0058,0.0053,0.0017,0.0054,0.0058,0.0062,0.0069,0.0027,0.0028,0.0012,0.0012,0.0012,0,0,0.0171,0.017,0.0172,0.0169,0.0163,0.0171,0.0152,0.0152,0.0163,0.0126,0.0133,0.0108,0.0084,0.0082,0.0077,0.0067,0.0046,0.0063,0.0067,0.0071,0.0028,0.0029,0.0031,0.0012,0.0012,0.0012,0,0,0.0186,0.0182,0.0193,0.0192,0.0189,0.0183,0.0186,0.0176,0.0177,0.0177,0.0156,0.0143,0.012,0.011,0.0102,0.0118,0.0069,0.0106,0.0145,0.0105,0.0106,0.0106,0.0056,0.0051,0.0111,0.0112,0.0112,0,0.0192,0.0207,0.0194,0.0206,0.0215,0.0193,0.0212,0.0209,0.0197,0.0203,0.0187,0.0159,0.0138,0.0141,0.0149,0.013,0.0091,0.0131,0.0111,0.0111,0.0111,0.0058,0.0053,0.0115,0.0114,0.0114,0.0114,0,0.0217,0.0232,0.0239,0.0251,0.0255,0.0267,0.0265,0.0267,0.0263,0.0257,0.0253,0.0221,0.0205,0.0195,0.018,0.0171,0.0138,0.0121,0.0101,0.0116,0.006,0.0053,0.0119,0.0118,0.0117,0.0116,0,0,0.0224,0.0253,0.0256,0.0279,0.0284,0.0294,0.0314,0.0327,0.0342,0.0321,0.0334,0.0313,0.0285,0.0273,0.0243,0.0212,0.0175,0.0171,0.0167,0.0127,0.0071,0.0047,0.0036,0.0151,0.015,0.0149,0.003,0,0.0251,0.0292,0.0299,0.0343,0.0366,0.0365,0.0385,0.0392,0.0388,0.0388,0.0358,0.0351,0.0318,0.0308,0.0274,0.0197,0.016,0.0208,0.0056,0.0052,0.0035,0.0029,0.0147,0.0025,0.0023,0.0022,0.0021,0,0.0273,0.0302,0.0353,0.0402,0.0412,0.0435,0.0468,0.0485,0.0478,0.047,0.0452,0.0417,0.0378,0.0343,0.0226,0.0254,0.0173,0.0109,0.0103,0.0056,0.0016,0.0006,0.0007,0.0008,0.0009,0.001,0.0011,0,0.0289,0.0342,0.0391,0.0407,0.045,0.0481,0.0503,0.0511,0.0533,0.0519,0.0515,0.046,0.0423,0.0326,0.0199,0.0207,0.0052,0.0044,-0.0055,-0.0059,-0.003,-0.0029,-0.004,-0.004,-0.004,-0.004,-0.0039,0,0.0316,0.0356,0.0408,0.0435,0.0498,0.0514,0.0568,0.0578,0.0588,0.0608,0.0558,0.0539,0.0415,0.0315,0.0204,0.0046,0.005,-0.0051,-0.0088,-0.0002,0.0003,-0.0036,-0.0034,-0.0044,-0.0043,-0.0042,-0.0041,0,0.0332,0.036,0.0423,0.0486,0.0509,0.0556,0.0619,0.0654,0.0648,0.0668,0.0665,0.0586,0.0447,0.0309,0.0131,0.0046,-0.0096,-0.0154,-0.0062,-0.0092,-0.0181,-0.0175,-0.027,-0.0271,-0.0273,-0.0274,-0.0275,0,0.0346,0.038,0.0462,0.0504,0.0541,0.0607,0.0654,0.0683,0.0715,0.0691,0.07,0.0579,0.0505,0.0238,0.0085,-0.0139,-0.0164,-0.0236,-0.0191,-0.0177,-0.0204,-0.0195,-0.0186,-0.0278,-0.0278,-0.0278,-0.0279,0,0.0379,0.0407,0.0461,0.0544,0.0609,0.0678,0.0743,0.0769,0.0792,0.0784,0.0723,0.0593,0.0425,0.023,0.0046,-0.0108,-0.0183,-0.0251,-0.0249,-0.0207,-0.0188,-0.0211,-0.0201,-0.0284,-0.0283,-0.0283,-0.0282,0,0.0402,0.0445,0.051,0.0585,0.0662,0.0728,0.0763,0.0794,0.0818,0.0794,0.0762,0.0592,0.0491,0.0242,0.0075,-0.0084,-0.0114,-0.0142,-0.0145,-0.0141,-0.0064,-0.0018,-0.0096,0,0,0,0,0,0.0426,0.0473,0.0545,0.0623,0.0697,0.0743,0.0813,0.0838,0.0853,0.0822,0.0797,0.0644,0.0389,0.0271,0.0108,0.0042,-0.0146,-0.0155,-0.018,-0.0313,-0.0307,-0.024,0,0,0,0,0,0,0.044,0.0508,0.0545,0.0637,0.0693,0.0778,0.0828,0.0843,0.0822,0.0808,0.0671,0.0606,0.0352,0.0477,0.0102,0.0052,0.0016,-0.0277,-0.028,-0.0316,-0.0311,-0.0306,-0.0235,0,0,0,0,0]}]]